BREEZE-M DEB (TANK), 42751

Orbit data source: Space-Track

BREEZE-M DEB (TANK), 42751 is space debris in HEO originally from a launch on Thu, 08 Jun 2017 UTC launched from the Tyuratam Missile And Space Complex (TTMTR). Debris objects in space refer to the collection of defunct objects orbiting the Earth. Examples of debris include non-operational satellites, rocket bodies, and fragments generated from explosions, collisions, or faulty payload assembly.

Loading next visibility...
BREEZE-M DEB (TANK) details
Identifier
42751, 2017-032C
Orbit
HEO
Last TLE update9 hours ago
Origin
Flag of CISKhrunichev (CIS)
ManufacturerKhrunichev
MissionSpacecraft
Bus & MotorBRIZ TANK, Unknown motor
Mass~1,000 kg wet, 1,000 kg dry
Launch date (UTC)
2017-06-08 (7 years ago)
Launch vehicleUnknown
Launch site
Tyuratam Missile And Space Complex (TTMTR)
Object type
Payload
Rocket body
Debris
Shape & HBRTorus, 4 m
Radar Cross Section8.218 m², Large (>1 m²)

Expand to show TLE details & history

TLE from 9 hours ago
0 BREEZE-M DEB (TANK)
1 42751U 17032C   24339.80979517  .00008759  00000-0  14936-2 0  9993
2 42751  49.6764 111.8197 4574044 133.5957 274.9304  6.33141867170518
Epoch: 2024-12-04T19:26Z
Definitive object data (Epoch: 2024-12-04T19:26:06.302Z)
Latitude-0.00001°
Longitude106.18545°
Altitude7,873.622 km
Speed4.863 km/s
True Right ascension07h 27m 14s
True Declination0° 00' 00"
Sunlit
Object was in daylight at TLE epoch
Visualization TLE readout
Latitude1.26687°
Longitude-75.25258°
Altitude973.882 km
Speed8.727 km/s
Apparent Right ascension17h 19m 46s
Apparent Declination-22° 19' 13"
Sunlit
Object is in daylight
Visualization observer readout
Local Sidereal Time02:01:57
Azimuth277.661° WNW
Elevation-44.821°
Doppler factor1
Orbital elements
Apogee altitude11,610.753 km
Perigee altitude319.175 km
Semi-major axis12,343.101 km
Eccentricity0.4574044
Inclination49.6764°
RAAN111.8197°
Arg. of periapsis133.5957°
True anomaly226.4707°
Mean anomaly274.9304°
Eccentric anomaly250.26271°
Mean motion1.58273 °/min
BSTAR0.0014936
Orbital period227.46 mins
Loading maneuver chart data...
Loading historical data...
Loading historical data...
Loading historical data...
Loading historical data...
Loading historical data...
Loading historical data...
Loading historical data...
Other satellites on launch #32 in the year 2017 (2017-06-08 UTC)

BREEZE-M DEB (TANK) Visibility forecast

Observer location: undefined°, undefined

Span
Click to sort rows by Start time (UTC) header in descending order
Start Az.
Max El. time (UTC)
Max El. Az.
Max El.
End time (UTC)
End Az.
10 mins2024-12-05 06:49:36.503Z125.825° SE2024-12-05 06:54:36.503Z119.981° SE10.382°2024-12-05 06:59:36.503Z113.053° SE
56 mins2024-12-05 10:18:36.503Z207.773° SW2024-12-05 11:04:36.503Z140.645° SSE41.623°2024-12-05 11:14:36.503Z64.236° ENE
16 mins2024-12-05 14:53:36.503Z276.722° WNW2024-12-05 15:05:36.503Z343.274° N32.18°2024-12-05 15:09:36.503Z51.001° ENE
|